Wind_Speed
41 41 42 42 42 42 42 41 40 39 38 37 36 35 34 33 33 33 31 31 31 30 28 28 28 28 27 27 27 25 24 24 23 22 21 20 19 19 19 19 18 18 18
42 42 42 43 43 43 43 43 42 41 40 39 38 37 37 36 35 35 34 32 32 31 30 30 30 30 29 28 28 27 26 26 25 24 23 22 21 21 20 20 20 20 20
42 43 43 44 44 44 44 44 44 43 43 41 40 39 38 39 38 37 36 35 33 33 32 32 32 32 31 30 30 30 29 27 26 26 25 24 23 23 22 22 22 21 21
42 42 43 44 45 45 46 46 46 45 45 44 42 41 40 40 39 38 38 38 36 35 34 34 33 33 33 32 31 31 31 30 28 28 27 26 25 24 24 23 23 23 22
41 42 43 43 45 45 46 47 47 47 46 45 44 43 42 41 41 41 40 39 38 37 36 36 35 35 34 33 33 32 33 32 31 30 29 29 27 26 25 25 24 24 24
41 42 42 43 44 45 46 47 48 49 48 47 47 46 44 43 43 42 41 41 40 39 38 38 37 36 35 35 34 33 33 33 33 32 32 31 30 29 28 28 26 25 25
42 43 43 44 44 45 46 47 48 49 49 49 49 48 47 46 45 44 44 43 42 41 41 40 40 39 38 37 36 36 35 34 34 33 32 32 31 31 31 30 29 28 28
44 44 43 44 45 45 46 47 48 49 50 51 51 51 49 49 48 46 46 46 44 43 44 43 43 41 40 40 38 38 38 37 36 36 35 33 33 33 33 32 31 31 31
46 46 45 46 46 46 47 47 48 49 51 52 51 52 52 51 50 49 48 48 47 46 46 45 45 45 44 43 41 41 41 40 39 39 38 37 36 35 35 34 33 33 33
47 47 47 47 48 48 47 48 49 49 50 51 52 53 53 53 52 51 50 50 49 48 47 47 47 47 46 45 44 43 43 43 42 41 40 39 38 38 37 37 36 35 35
48 48 47 48 48 47 48 49 49 49 50 51 51 52 53 53 53 53 51 51 51 50 50 49 48 47 47 46 45 45 44 44 43 43 42 41 40 40 39 39 38 38 36
48 49 49 48 48 48 48 49 50 50 51 52 51 52 52 53 53 54 53 52 53 52 51 51 50 49 49 48 47 47 46 46 45 45 45 43 43 41 42 41 40 40 38
48 49 49 49 48 47 48 49 51 51 52 52 52 52 53 53 54 54 54 54 55 54 53 52 51 51 51 49 48 48 48 48 47 47 46 45 45 44 42 43 42 41 40
49 50 50 49 48 49 49 50 51 51 52 52 52 53 53 53 54 55 55 55 56 55 54 53 53 52 52 51 49 49 49 49 48 47 47 45 45 44 43 43 42 42 42
50 49 50 50 49 49 50 50 51 52 52 52 53 53 53 53 53 54 54 54 55 55 55 54 53 52 52 51 51 50 49 48 48 47 47 46 45 44 44 43 43 43 43
49 50 50 50 50 50 51 51 52 52 52 53 54 53 53 53 53 54 54 55 56 56 55 54 54 53 52 51 51 50 48 48 48 49 49 48 48 46 46 45 44 44 44
51 50 50 50 50 50 50 50 51 52 52 53 54 54 54 53 53 53 54 54 55 55 55 54 53 53 53 52 51 50 50 49 49 50 50 50 50 49 49 48 47 46 45
51 52 52 51 50 51 51 50 51 52 53 53 53 54 54 54 53 53 53 53 54 55 55 54 53 53 54 53 52 52 50 50 50 51 51 52 51 51 51 50 49 48 47
50 51 53 52 52 51 51 52 52 52 53 53 53 53 54 53 52 53 53 53 54 55 55 54 53 54 54 54 54 53 52 51 51 51 52 53 53 52 51 50 50 49 49
49 50 51 53 53 53 53 53 53 52 53 53 53 53 52 52 52 52 52 52 53 54 55 56 54 54 55 55 55 55 55 54 53 53 53 53 53 53 52 52 51 51 51
48 49 49 51 52 53 53 53 52 52 52 52 52 52 52 52 52 52 52 53 54 54 55 56 55 55 55 56 56 56 57 56 54 53 54 54 55 54 54 53 52 52 52
46 47 48 49 50 51 52 52 52 51 50 51 51 52 52 52 52 52 53 54 54 54 55 55 56 56 56 56 55 56 56 55 55 55 55 55 56 56 55 54 54 54 53
44 45 46 47 48 49 50 51 50 49 49 50 50 51 51 51 51 52 53 54 55 55 56 56 57 57 57 57 56 57 56 56 55 55 55 55 55 56 56 56 56 56 55
43 43 43 44 46 47 48 49 49 49 49 50 50 50 51 51 52 52 52 54 55 55 56 57 56 56 57 57 56 56 57 56 55 55 55 55 56 56 57 57 57 57 56
41 41 41 42 43 44 46 47 48 48 49 49 50 50 50 51 52 52 52 52 52 53 54 56 55 56 57 57 57 57 57 57 57 56 56 57 57 58 58 57 58 58 57
39 39 40 41 43 44 45 46 47 48 48 48 49 49 48 49 50 51 51 51 51 51 53 55 55 56 57 58 58 58 58 58 58 58 57 57 58 59 59 59 59 58 58
Wind_Direction
251 250 250 249 248 248 248 248 248 248 247 248 248 247 245 243 241 241 241 241 241 242 242 244 245 246 247 247 246 246 247 248 248 248 250 253 256 260 260 261 264 267 270
252 251 250 249 249 248 248 248 247 247 247 247 247 247 246 244 243 243 241 241 241 242 242 243 245 246 246 247 247 247 248 249 250 249 250 252 256 259 261 261 264 268 271
253 252 251 250 249 249 248 248 247 247 247 247 247 247 246 245 244 244 243 243 243 243 243 244 245 245 245 247 247 247 248 249 250 249 248 251 254 257 259 261 264 267 270
254 254 252 251 250 249 249 248 247 246 246 246 246 246 245 245 244 244 245 244 244 244 244 244 245 246 246 247 247 248 249 249 250 249 249 251 254 256 258 260 262 265 268
255 255 253 252 252 250 249 247 247 246 246 245 245 245 244 244 244 244 245 245 244 244 245 245 245 246 247 247 247 248 249 249 250 251 251 252 253 255 256 259 261 263 266
257 256 255 254 253 251 249 248 247 246 245 244 244 244 243 243 243 244 245 245 245 244 245 246 246 247 247 248 247 248 249 250 250 251 251 252 254 255 257 259 260 262 264
257 257 257 255 254 252 251 249 247 246 245 244 244 243 243 243 243 244 245 245 245 246 246 247 247 247 248 249 248 248 249 250 251 251 252 253 254 256 257 258 260 261 263
257 257 257 256 254 252 251 249 248 246 245 244 244 244 243 243 243 243 244 245 246 246 246 247 247 248 248 250 250 250 250 250 251 252 253 253 254 255 257 258 260 261 262
257 257 256 256 255 253 252 250 248 245 244 244 245 245 244 244 243 244 244 246 246 246 247 248 248 248 249 250 250 250 251 251 251 253 254 254 254 254 257 259 261 262 263
257 257 256 256 255 253 252 250 249 247 245 245 245 244 244 244 244 244 245 246 246 246 247 249 249 249 250 251 250 250 251 251 252 253 253 254 255 255 256 259 260 261 263
257 258 257 255 254 252 251 250 248 247 247 246 245 245 245 245 245 244 245 246 245 246 247 248 249 249 249 250 250 249 250 251 252 252 253 255 256 257 257 259 260 260 262
258 258 257 255 253 252 250 249 248 248 248 246 246 246 246 246 246 245 246 246 245 246 248 249 249 249 248 249 249 249 249 250 251 252 253 255 256 257 258 258 259 260 261
258 258 257 255 253 252 251 249 248 248 248 247 247 247 247 247 246 247 246 246 246 246 248 249 248 248 247 248 248 249 249 250 251 251 252 254 255 256 258 258 258 259 261
258 257 256 254 252 252 251 249 247 248 247 247 247 246 247 247 247 248 247 247 246 246 247 247 247 247 247 247 248 248 249 250 249 250 250 252 254 255 258 259 258 259 260
257 256 255 254 253 252 250 250 249 248 248 247 247 246 246 247 247 248 248 246 245 245 246 246 246 246 246 247 247 247 248 248 248 249 250 251 253 254 256 258 258 259 260
255 254 254 254 253 252 251 250 250 248 248 247 246 246 246 247 247 248 248 246 245 244 244 244 245 245 245 245 246 247 248 248 248 249 249 250 252 253 255 257 258 258 259
254 252 252 252 252 252 251 250 250 250 248 247 246 246 246 246 247 248 248 247 245 243 243 243 244 245 244 244 245 246 248 249 249 249 249 250 252 253 254 256 258 258 259
254 253 252 252 251 251 251 251 251 250 249 247 247 246 246 245 246 247 247 247 246 244 243 243 244 245 245 246 246 247 249 249 250 250 250 251 252 253 255 255 257 257 258
253 253 253 251 250 250 251 251 251 251 249 248 247 247 246 245 245 245 246 247 247 245 244 244 245 246 246 245 246 248 250 251 251 251 251 251 251 253 254 256 257 257 258
254 253 253 251 251 251 251 251 251 251 249 248 246 246 245 244 245 245 245 247 247 245 244 244 245 246 246 246 247 248 250 252 252 252 252 251 252 252 253 256 257 258 258
255 254 252 252 251 250 251 250 249 249 248 247 246 246 245 245 245 245 246 247 246 245 245 245 246 246 246 246 248 249 251 251 251 252 252 252 252 252 253 255 257 258 259
255 254 252 252 250 250 249 248 247 246 246 246 246 246 246 246 246 246 246 246 246 246 246 246 246 247 247 247 248 249 251 251 251 251 252 252 253 253 253 254 256 258 260
255 255 253 251 250 249 248 247 246 246 246 246 245 245 246 246 246 246 245 245 246 247 247 247 247 247 247 248 248 249 249 250 251 251 251 252 253 253 253 254 256 258 260
255 254 253 251 251 249 248 247 246 247 246 246 245 245 245 245 246 245 245 246 247 248 247 247 247 247 247 247 247 249 249 250 250 250 251 252 252 253 254 255 257 258 260
255 254 254 253 252 251 249 248 247 247 247 246 246 246 246 245 245 246 246 247 248 249 248 247 246 247 247 247 247 248 248 248 249 250 251 252 253 254 255 256 257 258 259
256 255 255 254 253 252 251 250 249 248 248 247 246 246 246 246 246 247 248 248 249 250 249 248 247 247 248 248 249 249 249 249 250 250 252 253 253 253 255 256 257 258 259
Height
5754 5756 5758 5761 5764 5766 5769 5771 5774 5776 5779 5782 5784 5787 5789 5791 5794 5796 5799 5801 5803 5805 5807 5809 5810 5812 5814 5815 5816 5818 5819 5820 5821 5822 5823 5824 5825 5826 5826 5827 5827 5827 5827
5744 5746 5748 5751 5753 5756 5759 5762 5764 5767 5770 5773 5776 5779 5781 5784 5786 5789 5792 5794 5796 5798 5800 5802 5804 5806 5808 5809 5810 5812 5814 5815 5816 5817 5819 5819 5820 5821 5822 5822 5823 5823 5823
5734 5736 5738 5741 5743 5745 5748 5751 5754 5757 5760 5764 5767 5770 5773 5776 5778 5781 5784 5786 5789 5791 5793 5795 5797 5799 5801 5803 5804 5806 5808 5809 5810 5812 5813 5814 5815 5816 5817 5817 5818 5818 5818
5724 5725 5728 5730 5732 5734 5737 5740 5743 5747 5750 5754 5757 5760 5764 5767 5770 5773 5776 5778 5781 5784 5786 5788 5790 5792 5794 5796 5798 5799 5801 5803 5804 5806 5807 5808 5810 5811 5812 5812 5813 5813 5814
5713 5715 5717 5718 5720 5723 5725 5728 5732 5735 5739 5743 5747 5750 5754 5757 5760 5763 5767 5770 5772 5775 5778 5780 5782 5784 5787 5789 5791 5792 5794 5796 5798 5799 5801 5802 5804 5805 5806 5806 5807 5808 5808
5703 5704 5706 5707 5709 5711 5714 5716 5720 5724 5728 5732 5736 5740 5744 5747 5750 5754 5757 5760 5763 5766 5769 5771 5774 5776 5779 5781 5783 5785 5787 5788 5790 5792 5793 5795 5797 5798 5799 5800 5801 5802 5802
5692 5693 5695 5696 5698 5700 5702 5705 5708 5712 5716 5720 5724 5728 5733 5736 5740 5744 5747 5750 5753 5756 5759 5762 5765 5767 5770 5772 5775 5777 5779 5780 5782 5784 5786 5788 5789 5791 5792 5793 5794 5795 5796
5681 5682 5683 5685 5686 5689 5691 5693 5696 5699 5703 5707 5711 5716 5720 5725 5729 5733 5736 5740 5743 5745 5749 5752 5754 5758 5760 5763 5765 5768 5770 5772 5774 5776 5778 5780 5781 5783 5784 5785 5787 5788 5788
5669 5670 5671 5673 5674 5677 5679 5681 5684 5687 5691 5695 5698 5703 5708 5712 5717 5721 5725 5728 5731 5735 5738 5741 5744 5747 5750 5753 5756 5758 5761 5763 5765 5767 5769 5771 5773 5774 5776 5777 5778 5779 5780
5656 5658 5659 5660 5662 5664 5666 5669 5671 5675 5678 5682 5685 5689 5694 5699 5703 5709 5713 5716 5720 5723 5726 5729 5733 5736 5739 5742 5745 5747 5750 5753 5755 5757 5759 5761 5763 5765 5767 5768 5770 5771 5772
5644 5645 5646 5648 5649 5651 5653 5656 5659 5662 5665 5669 5673 5677 5681 5685 5690 5695 5700 5703 5707 5711 5714 5717 5721 5724 5727 5730 5733 5736 5739 5742 5744 5746 5748 5751 5753 5755 5757 5759 5760 5761 5762
5631 5632 5633 5634 5635 5637 5640 5643 5646 5649 5652 5656 5660 5664 5668 5672 5676 5681 5686 5690 5694 5698 5701 5705 5709 5712 5715 5718 5722 5724 5727 5730 5732 5735 5737 5740 5742 5745 5747 5748 5750 5751 5752
5617 5618 5619 5621 5622 5624 5626 5629 5633 5636 5639 5643 5647 5651 5654 5658 5662 5667 5672 5676 5680 5685 5688 5692 5696 5699 5702 5706 5709 5712 5715 5718 5721 5724 5726 5729 5731 5733 5736 5737 5739 5741 5742
5604 5604 5605 5607 5609 5611 5613 5615 5619 5622 5626 5629 5633 5637 5641 5645 5648 5653 5657 5661 5666 5671 5675 5679 5682 5685 5689 5693 5696 5699 5702 5705 5708 5711 5714 5717 5720 5722 5725 5726 5728 5730 5731
5589 5590 5591 5593 5595 5597 5599 5602 5605 5608 5612 5615 5619 5623 5627 5631 5635 5638 5642 5646 5651 5656 5661 5665 5669 5672 5676 5679 5683 5686 5690 5693 5696 5699 5702 5705 5708 5711 5714 5715 5717 5719 5720
5575 5576 5578 5580 5581 5583 5586 5588 5591 5594 5598 5601 5605 5609 5613 5617 5621 5625 5628 5632 5636 5641 5647 5652 5655 5659 5662 5666 5670 5674 5677 5681 5684 5687 5690 5693 5697 5699 5702 5704 5706 5708 5709
5561 5563 5564 5566 5568 5570 5572 5574 5578 5581 5584 5587 5591 5595 5599 5603 5607 5611 5614 5618 5622 5627 5632 5638 5642 5645 5649 5653 5657 5661 5665 5668 5671 5674 5678 5681 5684 5687 5689 5692 5694 5696 5698
5547 5548 5550 5552 5554 5556 5559 5561 5564 5567 5570 5573 5577 5581 5585 5589 5593 5597 5601 5604 5609 5613 5618 5624 5628 5632 5636 5640 5644 5648 5652 5656 5659 5662 5665 5668 5671 5674 5677 5679 5682 5684 5686
5532 5534 5535 5538 5540 5543 5545 5548 5550 5553 5556 5560 5563 5567 5571 5575 5579 5583 5587 5591 5595 5599 5604 5610 5615 5619 5623 5627 5631 5635 5639 5642 5646 5648 5651 5655 5658 5661 5664 5667 5669 5671 5673
5518 5520 5521 5523 5526 5528 5531 5533 5536 5539 5542 5546 5549 5553 5557 5561 5566 5570 5574 5578 5581 5585 5590 5596 5601 5605 5609 5613 5617 5621 5625 5629 5632 5635 5638 5641 5644 5647 5651 5654 5656 5658 5660
5504 5505 5507 5509 5511 5513 5516 5519 5522 5525 5528 5531 5535 5539 5544 5548 5552 5556 5560 5564 5567 5572 5576 5581 5586 5591 5595 5599 5604 5607 5611 5615 5618 5621 5624 5628 5631 5634 5637 5640 5642 5644 5647
5490 5491 5493 5495 5497 5499 5502 5504 5507 5511 5514 5518 5521 5525 5530 5534 5538 5542 5546 5550 5554 5558 5563 5567 5572 5577 5581 5585 5589 5592 5596 5600 5605 5609 5610 5613 5616 5619 5622 5626 5628 5630 5633
5477 5478 5479 5481 5483 5486 5488 5491 5493 5497 5501 5504 5508 5512 5516 5520 5524 5528 5532 5535 5540 5543 5548 5553 5557 5562 5566 5570 5574 5578 5581 5585 5590 5593 5595 5599 5602 5605 5608 5611 5613 5616 5618
5464 5465 5466 5468 5470 5472 5475 5478 5481 5484 5487 5491 5495 5499 5503 5506 5511 5514 5518 5522 5525 5529 5534 5538 5543 5548 5551 5554 5558 5562 5566 5570 5574 5577 5580 5584 5587 5591 5594 5596 5599 5601 5603
5451 5452 5454 5455 5457 5459 5462 5465 5468 5471 5475 5478 5482 5486 5489 5493 5498 5501 5505 5508 5512 5515 5518 5522 5526 5530 5534 5539 5542 5546 5550 5554 5559 5562 5565 5569 5573 5575 5579 5581 5583 5585 5587
5439 5440 5441 5442 5444 5447 5449 5452 5455 5459 5463 5466 5470 5473 5477 5480 5484 5487 5491 5494 5498 5501 5504 5507 5511 5515 5519 5523 5526 5530 5534 5538 5543 5547 5550 5553 5556 5559 5563 5566 5567 5569 5571